Location: *
(24.1434°N, 56.8729°E)
Time: 22:14:08
(UTC+00:00)

Cosmos 1954 Rocket - Pass Details

Date: 09 April 2020
Orbit: 752 x 781 km, 74.1° (Epoch: 25 May)

Event Time Altitude Azimuth Distance (km) Brightness Sun altitude
Rises 16:00:55 0° 199° (SSW) 3,235 7.2 -20.5°
Reaches altitude 10° 16:03:18 10° 202° (SSW) 2,307 6.5 -21.0°
Maximum altitude 16:08:31 70° 285° (WNW) 817 4.2 -22.1°
Drops below altitude 10° 16:13:43 10° 9° (N) 2,297 6.6 -23.3°
Sets 16:16:05 0° 12° (NNE) 3,220 7.4 -23.8°
